Regional Weather Roundup
Issued by NWS

Home | Current Version | Previous Version | Text Only | Print | Product List | Glossary On
Versions: 1 2 3 4 5 6 7 8 9 10 11 12 13 14 15 16 17 18 19 20 21 22 23 24 25 26 27 28 29 30 31 32 33 34 35 36 37 38 39 40 41 42 43 44 45 46 47 48 49 50
000
ASUS43 KMPX 241801
RWRMN
WEATHER ROUNDUP FOR MINNESOTA
NATIONAL WEATHER SERVICE TWIN CITIES/CHANHASSEN MN
1200 PM CST FRI NOV 24 2017


NOTE: "FAIR" INDICATES FEW OR NO CLOUDS BELOW 12,000 FEET WITH NO
SIGNIFICANT WEATHER AND/OR OBSTRUCTIONS TO VISIBILITY. N/A MEANS
CURRENT SKY AND/OR WEATHER CONDITIONS ARE NOT AVAILABLE.

MNZ060>063-068>070-241900-
   Twin Cities Metro

CITY           SKY/WX    TMP DP  RH WIND       PRES   REMARKS
TWIN CITIES    MOSUNNY   58  40  51 NW14      29.36R
6HR MIN TEMP:  47; 6HR MAX TEMP:  58;

ST PAUL        SUNNY     56  40  55 W13       29.36S
CRYSTAL        SUNNY     58  37  45 NW20      29.36R
LAKEVILLE      SUNNY     55  39  54 W10       29.35S
EDEN PRAIRIE   SUNNY     58  39  49 NW14      29.37R
6HR MIN TEMP:  45; 6HR MAX TEMP:  58;

SOUTH ST PAUL  SUNNY     57  39  50 NW12      29.35R
LAKE ELMO      FAIR      55  39  54 W13       29.35S
$$
MNZ001>005-007-008-013>017-022>024-027-028-241900-
   Northwest Minnesota

CITY           SKY/WX    TMP DP  RH WIND       PRES   REMARKS
BEMIDJI        CLOUDY    40  38  93 NW14      29.36S
HALLOCK        SUNNY     39  36  87 NW16      29.40R
ROSEAU         CLOUDY    41  36  81 NW9G17    29.35R
WARROAD        CLOUDY    39  36  87 W8G16     29.33S
CROOKSTON      MOSUNNY   41  39  93 NW14      29.43R
FOSSTON        CLOUDY    39  37  93 W6        29.39F
DETROIT LAKES  LGT RAIN  41  39  93 NW12      29.42S
MOORHEAD       CLOUDY    43  39  87 CALM      29.45R
PARK RAPIDS    CLOUDY    43  40  89 NW14      29.37R
MAHNOMEN       CLOUDY    39  38  96 NW6       29.40S
$$
MNZ006-009>011-018-025>026-241900-
   North Central Minnesota

CITY           SKY/WX    TMP DP  RH WIND       PRES   REMARKS
BAUDETTE       CLOUDY    39  33  79 W8        29.31S
FLAG ISLAND    MOSUNNY   37  32  81 NW14      29.31S
INTL FALLS     CLOUDY    39  33  79 NW8       29.28S
6HR MIN TEMP:  39; 6HR MAX TEMP:  43; 6HR PCP: TRACE;

WASKISH        CLOUDY    37  36  93 SW7       29.33S
BIG FORK       DRIZZLE   41  37  87 W3        29.31R
LONGVILLE      DRIZZLE   43  41  93 W10       29.34R
GRAND RAPIDS   LGT RAIN  43  40  89 NW14      29.34R
CRANE LAKE     DRIZZLE   39  36  87 W3        29.29R
ORR            DRIZZLE   39  34  81 NW10G16   29.27R
COOK           LGT RAIN  39  37  93 W9        29.29R
WALKER         LGT RAIN  42  40  94 NW12      29.35R
$$
MNZ012-019>021-037-241900-
   Northeast Minnesota

CITY           SKY/WX    TMP DP  RH WIND       PRES   REMARKS
DULUTH         LGT RAIN  39  38  96 NW8       29.25F
6HR MIN TEMP:  37; 6HR MAX TEMP:  41; 6HR PCP:  0.04;

ELY            CLOUDY    39  39 100 W7        29.24R
HIBBING        LGT RAIN  40  38  93 NW7       29.28R
EVELETH        LGT RAIN  37  34  89 W7        29.28F
DULUTH HARBOR  DRIZZLE   43  39  87 SW13      29.28R
TWO HARBORS    CLOUDY    45  39  81 SW6       29.22S
SILVER BAY     CLOUDY    43  43 100 CALM      29.21S
GRAND MARAIS     N/A     41  41 100 SW6       29.20F
G MARAIS ARPRT CLOUDY    39  34  81 W5        29.18S
$$
MNZ029>031-032-039>041-046>048-054>057-064-241900-
   West Central Minnesota

CITY           SKY/WX    TMP DP  RH WIND       PRES   REMARKS
FERGUS FALLS   CLOUDY    45  43  93 NW21G28   29.45R
WHEATON        CLOUDY    48  43  81 NW20G28   29.48R
MORRIS         CLOUDY    48  45  87 W13G18    29.42R
ALEXANDRIA     CLOUDY    49  45  86 W13G23    29.40S
ELBOW LAKE     CLOUDY    45  43  93 NW21      29.43R
WADENA         CLOUDY    45  39  81 NW23      29.38R
GLENWOOD       MOSUNNY   48  45  87 W12       29.39F
APPLETON         N/A     50  45  81 W8        29.43S
BENSON         PTSUNNY   50  45  81 NW7       29.43F
ORTONVILLE     CLOUDY    52  43  71 W12       29.44R
MADISON        DRIZZLE   55  45  67 SW7       29.44F
WILLMAR        FAIR      55  45  67 NW15      29.41F
$$
MNZ033>034-036-042>043-049>051-058-059-241900-
   Central Minnesota

CITY           SKY/WX    TMP DP  RH WIND       PRES   REMARKS
ST CLOUD       CLOUDY    56  42  59 W12       29.37R
6HR MIN TEMP:  36; 6HR MAX TEMP:  56;

SAUK CENTRE    MOCLDY    49  46  87 W10       29.37F
PAYNESVILLE    LGT RAIN  55  44  65 W13G20    29.39F
AITKIN         LGT RAIN  43  41  93 W3        29.29S
PINE RIVER     CLOUDY    43  39  87 NW10G18   29.39R
BRAINERD       LGT RAIN  45  41  86 SW8       29.33S
STAPLES        CLOUDY    46  43  87 W17G24    29.36R
LONG PRAIRIE   CLOUDY    50  43  76 SW10G18   29.37F
LITTLE FALLS   LGT RAIN  50  37  62 W6        29.35F
LITCHFIELD     MOSUNNY   59  43  55 NW16G22   29.41R
BUFFALO        LGT RAIN  54  40  59 W7        29.40R
MAPLE LAKE     CLOUDY    56  42  60 NW7       29.39R
HUTCHINSON     MOSUNNY   60  42  52 NW16      29.42R
$$
MNZ037-044-045-052-053-241900-
   East Central Minnesota

CITY           SKY/WX    TMP DP  RH WIND       PRES   REMARKS
PRINCETON      RAIN      54  43  66 W7        29.37S
MORA           CLOUDY    45  37  76 SW6       29.35R
CAMBRIDGE      CLOUDY    55  39  54 W5        29.36S
RUSH CITY      LGT RAIN  50  40  67 W3        29.34R
MOOSE LAKE     LGT RAIN  41  37  87 CALM      29.28F
HINCKLEY       LGT RAIN  52  41  66 W5        29.33R
CLOQUET        LGT RAIN  41  37  87 S7        29.28S
MCGREGOR       CLOUDY    45  41  87 SW5       29.30R
$$
MNZ071>073-080-081-089-090-097-098-241900-
   Southwest Minnesota

CITY           SKY/WX    TMP DP  RH WIND       PRES   REMARKS
MONTEVIDEO     DRIZZLE   54  43  66 NW10      29.43F
GRANITE FALLS  CLOUDY    58  43  56 W13       29.46F
CANBY          CLOUDY    60  40  48 NW21G29   29.46F
MARSHALL       CLOUDY    61  41  47 NW29G36   29.44F
REDWOOD FALLS  CLOUDY    62  40  44 NW20G31   29.44R
OLIVIA         CLOUDY    59  43  55 NW16G26   29.42F
PIPESTONE      PTSUNNY   57  39  51 NW21G35   29.52R
WINDOM         CLOUDY    61  39  44 NW28G38   29.47R
WORTHINGTON    MOSUNNY   58  40  51 NW25G38   29.48R
JACKSON        CLOUDY    59  37  44 NW29G37   29.47R
SLAYTON        CLOUDY    56  41  56 NW20G29   29.51R
$$
MNZ065>067-074>077-082>085-091>093-241900-
   South Central Minnesota

CITY           SKY/WX    TMP DP  RH WIND       PRES   REMARKS
MANKATO        SUNNY     60  41  49 NW23G29   29.40R
NEW ULM        MOSUNNY   57  39  51 NW21G30   29.43R
ST JAMES       SUNNY     59  39  47 NW22G30   29.44R
FAIRMONT       SUNNY     63  41  44 NW22G28   29.42
GLENCOE        MOSUNNY   58  41  52 NW13      29.40R
FARIBAULT      SUNNY     57  41  54 W9        29.37S
OWATONNA       SUNNY     59  43  55 W14       29.37R
WASECA         SUNNY     55  37  50 W14       29.40R
ALBERT LEA     SUNNY     59  37  44 W8        29.37S
$$
MNZ078>079-086>088-094>096-241900-
   Southeast Minnesota

CITY           SKY/WX    TMP DP  RH WIND       PRES   REMARKS
ROCHESTER      SUNNY     57  41  55 SW18      29.35F
6HR MIN TEMP:  42; 6HR MAX TEMP:  57;

RED WING       SUNNY     61  36  39 W13G20    29.33R
STANTON        SUNNY     60  40  47 W12       29.34F
DODGE CENTER   SUNNY     57  39  51 SW17      29.36F
WINONA         SUNNY     59  37  44 W13G18    29.37R
AUSTIN         SUNNY     57  41  54 SW12      29.36F
PRESTON        SUNNY     57  39  50 SW15G21   29.38R
$$
ABBREVIATIONS USED IN REMARKS
   TC - TEMPERATURES IN CELSIUS
  WCI - WIND CHILL INDEX
   HX - HEAT INDEX
  VSB - VISIBILITY
$$



USA.gov is the U.S. government's official web portal to all federal, state and local government web resources and services.